Location: Klein M�hlingen
(51.9472°N, 11.7453°E)
Time: 13:33:50
(UTC+00:00)

Cosmos 2082 Rocket - Pass Details

Date: 09 April 2020
Orbit: 831 x 855 km, 71.0° (Epoch: 03 June)

Event Time Altitude Azimuth Distance (km) Brightness Sun altitude
Exits shadow 20:33:31 25° 84° (E) 1,632 3.4 -20.9°
Drops below altitude 10° 20:37:01 10° 48° (NE) 2,470 4.6 -21.3°
Sets 20:39:48 0° 37° (NE) 3,414 5.5 -21.5°
